Weather History for KHWV - February, 2014

Change the Weather History Date:

Monday, February 3, 2014

  Actual Average (KISP) Record (KISP)
Temperature  
Mean Temperature 34 °F 31 °F  
Max Temperature 39 °F 39 °F 64 °F (1991)
Min Temperature 28 °F 24 °F 9 °F (1994)
Degree Days  
Heating Degree Days 30 34  
Month to date heating degree days 102  
Since 1 July heating degree days 3094  
Cooling Degree Days 0 0  
Month to date cooling degree days 0  
Year to date cooling degree days 0  
Moisture  
Dew Point 30 °F    
Average Humidity 90    
Maximum Humidity 96    
Minimum Humidity 70    
Precipitation  
Precipitation 0.15 in 0.11 in 0.95 in (2014)
Month to date precipitation 0.33  
Year to date precipitation 3.97  
Snow  
Snow 0.00 in 0.20 in 7.00 in (2014)
Month to date snowfall 0.7  
Since 1 July snowfall 13.3  
Snow Depth -    
Sea Level Pressure  
Sea Level Pressure 30.15 in    
Wind  
Wind Speed 8 mph (North)    
Max Wind Speed 12 mph    
Max Gust Speed 21 mph    
Visibility 4 miles    
Events Fog , Rain , Snow    
T = Trace of Precipitation, MM = Missing Value Source: NWS Daily Summary

Daily Weather History Graph

Daily Weather History Graph

Search for Another Location

Airport or City:

Trip Planner

Search our weather history database for the weather conditions in past years. The results will help you decide how hot, cold, wet, or windy it might be!

Date:

Astronomy

Feb. 03, 2014 Rise Set
Actual Time 6:59 AM EST 5:11 PM EST
Civil Twilight 6:30 AM EST 5:40 PM EST
Nautical Twilight 5:58 AM EST 6:13 PM EST
Astronomical Twilight 5:26 AM EST 6:45 PM EST
Moon 8:58 AM EST (2/3) 10:00 PM EST (2/3)
Length of Visible Light 11h 09m
Length of Day
10h 11m
Waxing Crescent, 19% of the Moon is Illuminated
Feb 3
Waxing Crescent
Feb 6
First Quarter
Feb 14
Full
Feb 22
Last Quarter
Mar 1
New

Hourly Weather History & Observations

Time (EST) Temp. Windchill Dew Point Humidity Pressure Visibility Wind Dir Wind Speed Gust Speed Precip Events Conditions
12:56 AM 39.9 °F 35.1 °F 30.9 °F 70% 30.10 in 10.0 mi North 6.9 mph - N/A   Overcast
1:56 AM 37.9 °F 32.1 °F 28.9 °F 70% 30.10 in 10.0 mi North 8.1 mph - 0.01 in Rain Light Rain
2:56 AM 36.0 °F 29.6 °F 30.0 °F 79% 30.11 in 8.0 mi North 8.1 mph - 0.01 in Rain Light Rain
3:56 AM 35.1 °F 28.6 °F 30.0 °F 82% 30.12 in 8.0 mi North 8.1 mph - 0.03 in Rain Light Rain
4:56 AM 34.0 °F 25.5 °F 30.0 °F 85% 30.14 in 8.0 mi North 11.5 mph - 0.07 in Rain Light Rain
5:22 AM 33.1 °F 26.1 °F 30.0 °F 89% 30.15 in 2.0 mi North 8.1 mph - 0.00 in Snow Light Snow
5:33 AM 33.1 °F 26.9 °F 30.0 °F 89% 30.14 in 1.8 mi North 6.9 mph - 0.00 in Snow Light Snow
5:35 AM 33.1 °F 26.9 °F 30.0 °F 89% 30.14 in 2.0 mi North 6.9 mph - 0.00 in Snow Light Snow
5:56 AM 33.1 °F 27.7 °F 30.0 °F 89% 30.13 in 1.8 mi North 5.8 mph - 0.01 in Snow Light Snow
6:04 AM 33.1 °F 27.7 °F 30.0 °F 89% 30.13 in 2.0 mi North 5.8 mph - 0.00 in Snow Light Snow
6:16 AM 33.1 °F 28.7 °F 30.0 °F 89% 30.14 in 3.0 mi North 4.6 mph - 0.00 in Snow Light Snow
6:21 AM 33.1 °F 27.7 °F 30.9 °F 92% 30.15 in 2.5 mi North 5.8 mph - 0.00 in Snow Light Snow
6:43 AM 33.1 °F 27.7 °F 30.9 °F 92% 30.13 in 1.2 mi North 5.8 mph - 0.00 in Snow Light Snow
6:56 AM 33.1 °F 26.9 °F 30.9 °F 92% 30.15 in 1.2 mi North 6.9 mph - 0.00 in Snow Light Snow
7:23 AM 33.1 °F 27.7 °F 30.9 °F 92% 30.16 in 1.5 mi North 5.8 mph - 0.00 in Snow Light Snow
7:52 AM 33.8 °F 28.6 °F 30.2 °F 87% 30.15 in 0.8 mi North 5.8 mph - 0.00 in Snow Light Snow
7:56 AM 33.1 °F 27.7 °F 30.9 °F 92% 30.15 in 0.5 mi North 5.8 mph - 0.00 in Fog , Snow Snow
8:56 AM 33.1 °F 27.7 °F 32.0 °F 96% 30.16 in 0.5 mi North 5.8 mph - 0.00 in Fog , Snow Snow
9:56 AM 33.1 °F 26.1 °F 30.9 °F 92% 30.17 in 0.5 mi North 8.1 mph - 0.00 in Fog , Snow Snow
10:56 AM 33.1 °F 27.7 °F 30.9 °F 92% 30.16 in 0.8 mi North 5.8 mph - 0.00 in Snow Light Snow
11:19 AM 33.1 °F 28.7 °F 32.0 °F 96% 30.14 in 0.5 mi Variable 4.6 mph - 0.00 in Fog , Snow Snow
11:36 AM 33.1 °F 27.7 °F 32.0 °F 96% 30.13 in 0.5 mi Variable 5.8 mph - 0.00 in Fog , Snow Snow
11:56 AM 33.1 °F 27.7 °F 32.0 °F 96% 30.13 in 0.5 mi Variable 5.8 mph - 0.01 in Fog , Snow Snow
12:56 PM 33.1 °F 26.9 °F 30.9 °F 92% 30.08 in 0.5 mi Variable 6.9 mph - 0.00 in Fog , Snow Snow
1:42 PM 33.1 °F 26.1 °F 30.9 °F 92% 30.06 in 0.5 mi NNE 8.1 mph - 0.00 in Fog , Snow Snow
1:56 PM 33.1 °F 26.9 °F 30.9 °F 92% 30.07 in 1.0 mi North 6.9 mph - 0.00 in Snow Light Snow
2:05 PM 33.1 °F 24.9 °F 30.9 °F 92% 30.07 in 0.8 mi NNE 10.4 mph 17.3 mph 0.00 in Snow Light Snow
2:23 PM 33.1 °F 25.5 °F 30.9 °F 92% 30.08 in 0.8 mi North 9.2 mph 18.4 mph 0.00 in Snow Light Snow
2:56 PM 32.0 °F 23.0 °F 30.0 °F 92% 30.10 in 0.8 mi North 11.5 mph 20.7 mph 0.01 in Snow Light Snow
3:33 PM 32.0 °F 24.8 °F 30.0 °F 92% 30.11 in 1.0 mi North 8.1 mph 18.4 mph 0.00 in Snow Light Snow
3:56 PM 32.0 °F 23.6 °F 30.0 °F 92% 30.12 in 1.2 mi North 10.4 mph - 0.00 in Snow Light Snow
4:07 PM 32.0 °F 23.6 °F 30.0 °F 92% 30.12 in 2.5 mi North 10.4 mph 18.4 mph 0.00 in Snow Light Snow
4:25 PM 32.0 °F 23.6 °F 30.0 °F 92% 30.13 in 1.8 mi North 10.4 mph 17.3 mph 0.00 in Snow Light Snow
4:56 PM 32.0 °F 24.2 °F 28.9 °F 88% 30.15 in 2.0 mi North 9.2 mph - 0.00 in Snow Light Snow
5:22 PM 32.0 °F 24.8 °F 28.9 °F 88% 30.15 in 3.0 mi North 8.1 mph - 0.00 in Snow Light Snow
5:31 PM 32.0 °F 24.2 °F 28.9 °F 88% 30.15 in 4.0 mi North 9.2 mph - 0.00 in Snow Light Snow
5:40 PM 32.0 °F 24.2 °F 28.9 °F 88% 30.16 in 5.0 mi North 9.2 mph - 0.00 in Snow Light Snow
5:56 PM 32.0 °F 24.8 °F 28.9 °F 88% 30.17 in 6.0 mi North 8.1 mph - 0.00 in Snow Light Snow
6:13 PM 30.9 °F 22.8 °F 28.9 °F 92% 30.18 in 5.0 mi North 9.2 mph - 0.00 in Snow Light Snow
6:25 PM 30.9 °F 23.5 °F 28.9 °F 92% 30.18 in 5.0 mi North 8.1 mph 18.4 mph 0.00 in Snow Light Snow
6:46 PM 30.9 °F 21.7 °F 28.9 °F 92% 30.19 in 6.0 mi North 11.5 mph - 0.00 in   Overcast
6:56 PM 30.9 °F 22.2 °F 28.9 °F 92% 30.20 in 7.0 mi North 10.4 mph - 0.00 in   Overcast
7:10 PM 30.9 °F 21.7 °F 28.9 °F 92% 30.20 in 8.0 mi North 11.5 mph - N/A   Overcast
7:56 PM 30.9 °F 22.2 °F 28.9 °F 92% 30.23 in 8.0 mi North 10.4 mph - 0.00 in   Overcast
8:25 PM 30.9 °F 24.3 °F 28.0 °F 89% 30.23 in 10.0 mi North 6.9 mph - 0.00 in   Overcast
8:49 PM 30.9 °F 24.3 °F 28.0 °F 89% 30.24 in 10.0 mi North 6.9 mph - 0.00 in   Overcast
8:56 PM 30.9 °F 23.5 °F 28.0 °F 89% 30.25 in 10.0 mi North 8.1 mph - 0.00 in   Overcast
9:56 PM 30.9 °F 24.3 °F 28.0 °F 89% 30.28 in 10.0 mi North 6.9 mph - N/A   Overcast
10:56 PM 30.0 °F 25.2 °F 28.0 °F 92% 30.30 in 10.0 mi North 4.6 mph - N/A   Overcast
11:56 PM 28.9 °F - 27.0 °F 92% 30.32 in 10.0 mi Calm Calm - N/A   Scattered Clouds